GFSNIL_prec_precacc_060.txt.gz
Total_Precipitation_Accumulation
0.19 0.06 0.03 0.03 0.04 0.05 0.03 0.02 0.03 0.03 0.02 0.02 0.02 0.06 0.09 0.11 0.14 0.20 0.28 0.35 0.41 0.44
0.23 0.10 0.07 0.06 0.05 0.05 0.04 0.05 0.05 0.03 0.04 0.11 0.16 0.16 0.19 0.25 0.31 0.35 0.37 0.35 0.32 0.33
0.20 0.15 0.09 0.06 0.05 0.04 0.05 0.09 0.09 0.11 0.18 0.19 0.16 0.13 0.12 0.12 0.09 0.11 0.12 0.10 0.08 0.08
0.14 0.12 0.10 0.08 0.07 0.05 0.08 0.14 0.19 0.16 0.14 0.12 0.14 0.16 0.11 0.09 0.09 0.07 0.03 0.01 0.02 0.02
0.23 0.25 0.25 0.20 0.15 0.16 0.18 0.18 0.18 0.27 0.26 0.16 0.15 0.12 0.12 0.09 0.04 0.02 0.02 0.02 0.01 0.01
0.24 0.23 0.23 0.22 0.21 0.30 0.49 0.57 0.50 0.32 0.20 0.13 0.10 0.10 0.08 0.04 0.02 0.01 0.00 0.00 0.00 0.00
0.27 0.22 0.18 0.13 0.14 0.18 0.21 0.18 0.11 0.08 0.12 0.15 0.12 0.06 0.02 0.00 0.00 0.00 0.00 0.00 0.00 0.00
0.11 0.07 0.04 0.04 0.03 0.06 0.10 0.09 0.09 0.08 0.07 0.05 0.06 0.04 0.01 0.00 0.00 0.00 0.00 0.00 0.00 0.00
0.05 0.09 0.11 0.13 0.12 0.13 0.10 0.05 0.04 0.08 0.09 0.08 0.04 0.02 0.01 0.00 0.00 0.00 0.00 0.00 0.00 0.00
0.06 0.08 0.07 0.06 0.08 0.06 0.08 0.14 0.17 0.15 0.10 0.04 0.02 0.01 0.00 0.00 0.00 0.00 0.00 0.00 0.00 0.00
0.01 0.02 0.02 0.05 0.12 0.18 0.25 0.22 0.13 0.05 0.01 0.01 0.00 0.00 0.00 0.00 0.00 0.00 0.00 0.00 0.00 0.00
0.01 0.04 0.06 0.16 0.28 0.26 0.11 0.02 0.00 0.01 0.01 0.01 0.01 0.00 0.00 0.00 0.01 0.00 0.00 0.00 0.01 0.01
0.05 0.21 0.27 0.21 0.07 0.00 0.00 0.00 0.00 0.00 0.00 0.00 0.01 0.01 0.01 0.01 0.01 0.03 0.02 0.02 0.01 0.01
0.17 0.10 0.05 0.02 0.00 0.00 0.00 0.00 0.00 0.01 0.01 0.01 0.01 0.01 0.01 0.02 0.02 0.06 0.09 0.04 0.03 0.05

GFSNIL_prec_precacc_063.txt.gz
Total_Precipitation_Accumulation
0.19 0.06 0.04 0.04 0.09 0.08 0.05 0.03 0.05 0.06 0.05 0.05 0.05 0.08 0.10 0.11 0.15 0.20 0.29 0.37 0.42 0.44
0.24 0.11 0.07 0.07 0.06 0.06 0.05 0.06 0.07 0.08 0.13 0.23 0.28 0.18 0.20 0.27 0.33 0.39 0.40 0.37 0.33 0.33
0.22 0.19 0.10 0.07 0.07 0.07 0.07 0.10 0.12 0.16 0.24 0.23 0.18 0.16 0.17 0.15 0.13 0.13 0.14 0.11 0.08 0.08
0.18 0.16 0.15 0.16 0.13 0.09 0.11 0.17 0.22 0.17 0.17 0.24 0.26 0.23 0.16 0.13 0.14 0.12 0.06 0.03 0.02 0.02
0.23 0.26 0.27 0.23 0.17 0.19 0.20 0.18 0.22 0.42 0.54 0.38 0.27 0.20 0.18 0.13 0.08 0.06 0.04 0.02 0.01 0.01
0.24 0.24 0.24 0.23 0.22 0.30 0.50 0.65 0.68 0.55 0.39 0.24 0.17 0.15 0.14 0.11 0.08 0.04 0.01 0.00 0.00 0.00
0.29 0.23 0.19 0.14 0.15 0.19 0.22 0.20 0.14 0.11 0.13 0.16 0.14 0.09 0.08 0.05 0.02 0.00 0.00 0.00 0.00 0.00
0.14 0.09 0.06 0.04 0.04 0.06 0.10 0.09 0.09 0.08 0.08 0.06 0.07 0.08 0.06 0.02 0.00 0.00 0.00 0.00 0.00 0.00
0.10 0.10 0.12 0.13 0.12 0.13 0.10 0.05 0.04 0.08 0.09 0.09 0.06 0.04 0.02 0.00 0.00 0.00 0.00 0.00 0.00 0.00
0.06 0.09 0.07 0.06 0.08 0.06 0.08 0.14 0.17 0.16 0.11 0.05 0.02 0.01 0.00 0.00 0.00 0.00 0.00 0.00 0.00 0.00
0.01 0.02 0.02 0.05 0.12 0.18 0.25 0.22 0.13 0.05 0.01 0.01 0.00 0.00 0.00 0.00 0.00 0.00 0.00 0.00 0.00 0.00
0.01 0.04 0.06 0.16 0.28 0.26 0.11 0.02 0.00 0.01 0.01 0.01 0.01 0.00 0.00 0.00 0.01 0.00 0.00 0.00 0.01 0.01
0.05 0.21 0.27 0.21 0.07 0.00 0.00 0.00 0.00 0.00 0.00 0.00 0.01 0.01 0.01 0.01 0.01 0.03 0.02 0.02 0.01 0.01
0.17 0.10 0.05 0.02 0.00 0.00 0.00 0.00 0.00 0.01 0.01 0.01 0.01 0.01 0.01 0.02 0.02 0.06 0.09 0.04 0.03 0.05

GFSNIL_prec_precacc_069.txt.gz
Total_Precipitation_Accumulation
0.19 0.07 0.13 0.05 0.09 0.14 0.12 0.08 0.07 0.06 0.06 0.07 0.10 0.19 0.27 0.34 0.38 0.45 0.53 0.55 0.55 0.51
0.24 0.11 0.08 0.08 0.13 0.16 0.13 0.09 0.12 0.14 0.17 0.27 0.34 0.33 0.32 0.39 0.47 0.54 0.53 0.44 0.36 0.35
0.22 0.26 0.18 0.17 0.31 0.40 0.39 0.31 0.28 0.31 0.33 0.27 0.22 0.23 0.30 0.32 0.27 0.22 0.19 0.16 0.13 0.12
0.23 0.27 0.54 0.82 0.80 0.58 0.54 0.44 0.37 0.28 0.22 0.29 0.39 0.38 0.28 0.22 0.21 0.17 0.10 0.06 0.05 0.04
0.81 0.91 0.88 1.13 0.88 0.39 0.31 0.28 0.31 0.47 0.56 0.44 0.32 0.26 0.24 0.19 0.11 0.08 0.07 0.05 0.03 0.01
0.96 0.85 0.83 0.54 0.44 0.44 0.60 0.74 0.73 0.60 0.45 0.30 0.22 0.17 0.14 0.12 0.09 0.06 0.03 0.01 0.00 0.00
0.54 0.44 0.36 0.25 0.25 0.24 0.27 0.25 0.16 0.13 0.15 0.16 0.14 0.09 0.08 0.06 0.03 0.01 0.00 0.00 0.00 0.00
0.24 0.23 0.12 0.09 0.10 0.12 0.13 0.11 0.10 0.09 0.08 0.06 0.07 0.09 0.06 0.02 0.00 0.00 0.00 0.00 0.00 0.00
0.20 0.18 0.19 0.22 0.14 0.15 0.11 0.06 0.05 0.08 0.09 0.09 0.06 0.06 0.02 0.00 0.00 0.00 0.00 0.00 0.00 0.00
0.12 0.13 0.10 0.08 0.08 0.06 0.08 0.14 0.17 0.16 0.11 0.05 0.02 0.01 0.00 0.00 0.00 0.00 0.00 0.00 0.00 0.00
0.01 0.02 0.02 0.05 0.12 0.18 0.25 0.22 0.13 0.05 0.01 0.01 0.00 0.00 0.00 0.00 0.00 0.00 0.00 0.00 0.00 0.00
0.01 0.04 0.06 0.16 0.28 0.26 0.11 0.02 0.00 0.01 0.01 0.01 0.01 0.00 0.00 0.00 0.01 0.00 0.00 0.00 0.01 0.01
0.05 0.21 0.27 0.21 0.07 0.00 0.00 0.00 0.00 0.00 0.00 0.00 0.01 0.01 0.01 0.01 0.01 0.03 0.02 0.02 0.01 0.01
0.17 0.10 0.05 0.02 0.00 0.00 0.00 0.00 0.00 0.01 0.01 0.01 0.01 0.01 0.01 0.02 0.02 0.06 0.09 0.04 0.03 0.05

GFSNIL_prec_precacc_072.txt.gz
Total_Precipitation_Accumulation
0.19 0.07 0.13 0.05 0.10 0.14 0.12 0.08 0.07 0.06 0.12 0.17 0.15 0.20 0.27 0.35 0.39 0.46 0.54 0.59 0.62 0.57
0.27 0.14 0.08 0.11 0.14 0.17 0.13 0.09 0.13 0.20 0.24 0.35 0.39 0.34 0.32 0.40 0.48 0.54 0.53 0.46 0.37 0.36
0.24 0.33 0.23 0.23 0.41 0.45 0.43 0.37 0.41 0.43 0.45 0.40 0.32 0.27 0.31 0.32 0.27 0.22 0.19 0.16 0.13 0.12
0.23 0.27 0.66 0.99 1.04 0.88 0.87 0.93 0.73 0.49 0.38 0.45 0.51 0.42 0.29 0.23 0.22 0.17 0.11 0.06 0.05 0.04
0.93 1.01 1.09 1.44 1.39 1.15 0.89 0.60 0.46 0.63 0.65 0.52 0.38 0.28 0.25 0.19 0.11 0.09 0.07 0.05 0.03 0.02
1.29 1.32 1.58 1.23 0.84 0.73 0.75 0.81 0.79 0.66 0.50 0.34 0.24 0.18 0.15 0.12 0.10 0.06 0.03 0.01 0.00 0.00
0.66 0.60 0.55 0.38 0.35 0.31 0.31 0.31 0.23 0.21 0.19 0.18 0.14 0.10 0.09 0.06 0.03 0.01 0.00 0.00 0.00 0.00
0.27 0.28 0.17 0.13 0.14 0.15 0.18 0.16 0.16 0.12 0.10 0.07 0.08 0.10 0.08 0.03 0.00 0.00 0.00 0.00 0.00 0.00
0.22 0.20 0.20 0.22 0.15 0.16 0.13 0.09 0.07 0.10 0.11 0.10 0.07 0.08 0.03 0.01 0.00 0.00 0.00 0.00 0.00 0.00
0.13 0.14 0.11 0.08 0.09 0.07 0.08 0.14 0.18 0.16 0.12 0.05 0.02 0.02 0.00 0.00 0.00 0.00 0.00 0.00 0.00 0.00
0.01 0.03 0.02 0.05 0.12 0.18 0.25 0.22 0.13 0.05 0.01 0.01 0.00 0.00 0.00 0.00 0.00 0.00 0.00 0.00 0.00 0.00
0.01 0.04 0.06 0.16 0.28 0.26 0.11 0.02 0.00 0.01 0.01 0.01 0.01 0.00 0.00 0.00 0.01 0.00 0.00 0.00 0.01 0.01
0.05 0.21 0.27 0.21 0.07 0.00 0.00 0.00 0.00 0.00 0.00 0.00 0.01 0.01 0.01 0.01 0.01 0.03 0.02 0.02 0.01 0.01
0.17 0.10 0.05 0.02 0.00 0.00 0.00 0.00 0.00 0.01 0.01 0.01 0.01 0.01 0.01 0.02 0.02 0.06 0.09 0.04 0.03 0.05

GFSNIL_prec_precacc_078.txt.gz
Total_Precipitation_Accumulation
0.19 0.07 0.13 0.05 0.10 0.14 0.12 0.08 0.07 0.06 0.12 0.18 0.20 0.31 0.41 0.49 0.53 0.60 0.67 0.72 0.71 0.63
0.27 0.14 0.08 0.11 0.14 0.17 0.14 0.10 0.13 0.20 0.24 0.39 0.48 0.47 0.50 0.62 0.75 0.84 0.79 0.61 0.44 0.40
0.24 0.33 0.23 0.23 0.41 0.46 0.49 0.43 0.45 0.49 0.54 0.48 0.40 0.38 0.46 0.45 0.39 0.37 0.34 0.31 0.30 0.19
0.23 0.27 0.67 1.03 1.08 0.94 0.97 1.08 0.97 0.80 0.71 0.72 0.74 0.69 0.53 0.37 0.31 0.28 0.21 0.15 0.14 0.13
0.97 1.03 1.14 1.51 1.49 1.26 1.13 0.93 0.83 0.94 0.85 0.65 0.48 0.36 0.30 0.23 0.16 0.14 0.13 0.12 0.11 0.08
1.34 1.36 1.65 1.51 1.33 1.20 1.09 1.02 0.88 0.70 0.53 0.36 0.26 0.22 0.20 0.17 0.17 0.14 0.13 0.12 0.11 0.09
0.80 0.65 0.64 0.47 0.47 0.42 0.44 0.40 0.29 0.25 0.24 0.23 0.19 0.16 0.16 0.16 0.14 0.13 0.13 0.13 0.09 0.04
0.37 0.36 0.25 0.20 0.19 0.24 0.29 0.29 0.29 0.22 0.17 0.14 0.16 0.18 0.16 0.13 0.11 0.10 0.09 0.08 0.05 0.03
0.28 0.25 0.24 0.26 0.18 0.19 0.20 0.17 0.17 0.20 0.22 0.18 0.14 0.22 0.14 0.08 0.05 0.08 0.07 0.06 0.04 0.04
0.16 0.16 0.12 0.09 0.10 0.08 0.12 0.20 0.26 0.25 0.19 0.12 0.10 0.16 0.08 0.07 0.02 0.02 0.03 0.03 0.02 0.01
0.04 0.04 0.04 0.06 0.13 0.20 0.26 0.25 0.16 0.09 0.05 0.05 0.07 0.08 0.04 0.04 0.01 0.01 0.01 0.01 0.00 0.00
0.03 0.05 0.07 0.18 0.30 0.29 0.15 0.07 0.04 0.04 0.03 0.04 0.05 0.04 0.02 0.02 0.01 0.01 0.01 0.01 0.01 0.01
0.06 0.23 0.29 0.23 0.10 0.05 0.05 0.04 0.04 0.04 0.04 0.04 0.02 0.05 0.03 0.02 0.01 0.03 0.02 0.02 0.01 0.01
0.19 0.11 0.07 0.05 0.04 0.04 0.03 0.02 0.02 0.03 0.02 0.02 0.02 0.03 0.02 0.02 0.02 0.06 0.09 0.04 0.03 0.05

GFSNIL_prec_precacc_081.txt.gz
Total_Precipitation_Accumulation
0.19 0.07 0.13 0.05 0.10 0.14 0.12 0.08 0.07 0.06 0.12 0.18 0.20 0.31 0.41 0.49 0.53 0.60 0.68 0.77 0.84 0.84
0.27 0.14 0.08 0.11 0.14 0.17 0.14 0.10 0.13 0.20 0.24 0.39 0.48 0.47 0.50 0.62 0.75 0.84 0.80 0.67 0.55 0.49
0.24 0.33 0.23 0.23 0.41 0.46 0.49 0.43 0.45 0.49 0.54 0.48 0.40 0.38 0.46 0.45 0.39 0.37 0.35 0.34 0.34 0.31
0.23 0.27 0.67 1.03 1.08 0.94 0.97 1.08 0.97 0.80 0.71 0.72 0.76 0.72 0.57 0.43 0.38 0.34 0.27 0.20 0.19 0.22
0.97 1.03 1.14 1.51 1.49 1.26 1.13 0.93 0.83 0.94 0.86 0.67 0.52 0.40 0.34 0.29 0.21 0.21 0.24 0.23 0.20 0.18
1.34 1.36 1.65 1.51 1.33 1.20 1.09 1.02 0.89 0.70 0.54 0.38 0.29 0.24 0.22 0.19 0.17 0.14 0.13 0.13 0.15 0.16
0.82 0.66 0.64 0.47 0.48 0.42 0.45 0.40 0.31 0.28 0.28 0.27 0.22 0.18 0.18 0.16 0.15 0.14 0.13 0.14 0.13 0.10
0.37 0.37 0.27 0.22 0.22 0.27 0.30 0.30 0.30 0.27 0.22 0.19 0.19 0.20 0.18 0.14 0.11 0.10 0.11 0.11 0.09 0.07
0.28 0.25 0.26 0.28 0.21 0.21 0.21 0.18 0.17 0.21 0.23 0.20 0.17 0.29 0.18 0.10 0.06 0.08 0.09 0.08 0.07 0.07
0.16 0.16 0.13 0.10 0.11 0.09 0.14 0.22 0.28 0.26 0.21 0.14 0.13 0.23 0.12 0.09 0.03 0.03 0.04 0.04 0.03 0.02
0.04 0.04 0.04 0.06 0.14 0.21 0.28 0.26 0.18 0.11 0.07 0.07 0.11 0.13 0.06 0.06 0.01 0.02 0.03 0.04 0.04 0.04
0.03 0.06 0.08 0.18 0.31 0.30 0.16 0.08 0.05 0.05 0.05 0.06 0.08 0.09 0.06 0.04 0.01 0.02 0.02 0.01 0.01 0.02
0.07 0.24 0.31 0.25 0.10 0.05 0.05 0.05 0.05 0.07 0.07 0.08 0.05 0.10 0.06 0.03 0.02 0.04 0.03 0.02 0.02 0.02
0.19 0.12 0.07 0.05 0.05 0.05 0.05 0.05 0.05 0.06 0.05 0.05 0.05 0.07 0.05 0.03 0.02 0.06 0.09 0.05 0.03 0.05

GFSNIL_prec_precacc_084.txt.gz
Total_Precipitation_Accumulation
0.19 0.08 0.14 0.06 0.10 0.14 0.12 0.08 0.07 0.06 0.12 0.18 0.20 0.31 0.41 0.49 0.53 0.60 0.68 0.77 0.84 0.85
0.27 0.14 0.08 0.11 0.14 0.17 0.14 0.10 0.13 0.20 0.24 0.39 0.48 0.47 0.50 0.62 0.75 0.84 0.80 0.67 0.55 0.49
0.24 0.33 0.23 0.23 0.41 0.46 0.49 0.43 0.45 0.49 0.54 0.48 0.40 0.38 0.46 0.45 0.39 0.37 0.35 0.35 0.34 0.32
0.23 0.27 0.67 1.03 1.08 0.94 0.97 1.08 0.97 0.80 0.71 0.72 0.76 0.72 0.57 0.43 0.38 0.35 0.28 0.23 0.23 0.30
0.97 1.03 1.14 1.51 1.49 1.26 1.13 0.93 0.83 0.94 0.86 0.67 0.52 0.40 0.34 0.29 0.23 0.24 0.27 0.27 0.29 0.29
1.34 1.36 1.65 1.51 1.33 1.20 1.09 1.02 0.89 0.70 0.54 0.38 0.29 0.24 0.23 0.20 0.19 0.16 0.15 0.14 0.15 0.16
0.82 0.66 0.64 0.47 0.48 0.42 0.45 0.40 0.31 0.28 0.28 0.27 0.22 0.18 0.19 0.16 0.15 0.14 0.14 0.14 0.13 0.10
0.38 0.37 0.27 0.22 0.22 0.27 0.30 0.30 0.30 0.27 0.22 0.19 0.20 0.22 0.20 0.14 0.12 0.12 0.12 0.12 0.10 0.08
0.28 0.26 0.26 0.28 0.21 0.22 0.22 0.19 0.18 0.21 0.23 0.20 0.18 0.30 0.21 0.13 0.08 0.11 0.12 0.12 0.10 0.10
0.16 0.16 0.13 0.10 0.11 0.10 0.17 0.25 0.31 0.27 0.21 0.14 0.14 0.27 0.16 0.16 0.06 0.05 0.07 0.07 0.06 0.04
0.04 0.04 0.04 0.07 0.14 0.21 0.28 0.26 0.18 0.11 0.08 0.08 0.14 0.19 0.09 0.09 0.03 0.03 0.05 0.06 0.05 0.06
0.03 0.06 0.09 0.19 0.31 0.30 0.16 0.08 0.05 0.06 0.06 0.06 0.09 0.12 0.07 0.06 0.02 0.03 0.04 0.04 0.05 0.05
0.07 0.24 0.31 0.25 0.11 0.06 0.06 0.06 0.06 0.08 0.08 0.11 0.06 0.13 0.08 0.05 0.02 0.04 0.03 0.03 0.03 0.04
0.19 0.12 0.08 0.06 0.05 0.05 0.05 0.05 0.06 0.07 0.06 0.07 0.08 0.10 0.08 0.06 0.03 0.07 0.09 0.05 0.03 0.05

GFSNIL_prec_precacc_087.txt.gz
Total_Precipitation_Accumulation
0.20 0.08 0.14 0.06 0.10 0.14 0.12 0.08 0.07 0.11 0.14 0.18 0.20 0.31 0.41 0.49 0.53 0.61 0.68 0.77 0.85 0.86
0.28 0.15 0.08 0.11 0.14 0.17 0.14 0.10 0.13 0.21 0.29 0.41 0.48 0.48 0.51 0.62 0.75 0.84 0.81 0.68 0.56 0.50
0.24 0.34 0.24 0.23 0.41 0.46 0.49 0.43 0.45 0.49 0.56 0.49 0.41 0.38 0.48 0.46 0.40 0.37 0.37 0.37 0.36 0.34
0.23 0.27 0.67 1.03 1.08 0.94 0.97 1.09 0.97 0.80 0.71 0.73 0.76 0.73 0.58 0.44 0.39 0.36 0.30 0.26 0.26 0.31
0.97 1.03 1.14 1.52 1.49 1.26 1.13 0.93 0.83 0.94 0.86 0.67 0.52 0.40 0.34 0.29 0.23 0.24 0.28 0.29 0.33 0.31
1.34 1.36 1.65 1.51 1.33 1.20 1.09 1.02 0.89 0.70 0.54 0.38 0.29 0.24 0.23 0.20 0.19 0.16 0.16 0.15 0.16 0.17
0.82 0.66 0.64 0.47 0.48 0.42 0.45 0.40 0.31 0.28 0.28 0.27 0.22 0.18 0.19 0.16 0.15 0.14 0.14 0.14 0.13 0.10
0.38 0.37 0.27 0.22 0.22 0.27 0.30 0.30 0.30 0.27 0.22 0.19 0.20 0.22 0.20 0.14 0.13 0.12 0.12 0.12 0.11 0.10
0.28 0.26 0.26 0.28 0.21 0.22 0.22 0.19 0.18 0.21 0.23 0.20 0.18 0.30 0.21 0.13 0.09 0.12 0.13 0.13 0.12 0.15
0.16 0.16 0.13 0.10 0.11 0.10 0.17 0.25 0.31 0.27 0.21 0.15 0.15 0.28 0.16 0.16 0.07 0.06 0.08 0.08 0.08 0.07
0.04 0.04 0.04 0.07 0.14 0.21 0.28 0.27 0.19 0.12 0.09 0.08 0.16 0.21 0.12 0.11 0.03 0.03 0.05 0.08 0.08 0.09
0.03 0.06 0.09 0.19 0.31 0.30 0.16 0.08 0.05 0.06 0.06 0.07 0.10 0.14 0.09 0.07 0.02 0.03 0.05 0.07 0.09 0.11
0.07 0.24 0.31 0.25 0.11 0.06 0.06 0.06 0.06 0.08 0.08 0.12 0.07 0.16 0.09 0.05 0.02 0.04 0.04 0.06 0.08 0.12
0.19 0.12 0.08 0.06 0.05 0.05 0.05 0.06 0.07 0.08 0.07 0.07 0.09 0.12 0.10 0.07 0.04 0.07 0.09 0.06 0.04 0.06

GFSNIL_prec_precacc_093.txt.gz
Total_Precipitation_Accumulation
0.20 0.09 0.14 0.06 0.10 0.14 0.12 0.08 0.07 0.13 0.18 0.21 0.25 0.37 0.46 0.51 0.54 0.63 0.69 0.79 0.86 0.87
0.29 0.15 0.08 0.12 0.14 0.17 0.14 0.10 0.13 0.22 0.32 0.46 0.53 0.52 0.55 0.66 0.77 0.85 0.81 0.68 0.58 0.55
0.25 0.35 0.24 0.23 0.41 0.46 0.49 0.43 0.45 0.50 0.58 0.53 0.47 0.43 0.52 0.49 0.43 0.40 0.38 0.38 0.40 0.45
0.24 0.28 0.67 1.04 1.08 0.94 0.97 1.09 0.97 0.80 0.72 0.74 0.79 0.79 0.64 0.46 0.42 0.38 0.33 0.37 0.40 0.38
0.97 1.03 1.14 1.52 1.49 1.26 1.13 0.93 0.83 0.94 0.86 0.68 0.53 0.44 0.39 0.34 0.30 0.29 0.32 0.33 0.44 0.34
1.35 1.36 1.65 1.51 1.33 1.20 1.09 1.02 0.89 0.70 0.54 0.38 0.29 0.25 0.23 0.21 0.21 0.20 0.18 0.18 0.20 0.19
0.82 0.66 0.64 0.47 0.48 0.43 0.45 0.40 0.31 0.28 0.28 0.27 0.23 0.19 0.19 0.17 0.16 0.16 0.15 0.16 0.16 0.12
0.38 0.37 0.27 0.23 0.22 0.27 0.31 0.30 0.30 0.28 0.23 0.20 0.20 0.22 0.20 0.15 0.13 0.12 0.13 0.13 0.13 0.12
0.28 0.26 0.26 0.28 0.21 0.22 0.23 0.19 0.18 0.21 0.23 0.20 0.18 0.30 0.21 0.13 0.11 0.16 0.16 0.15 0.13 0.17
0.16 0.16 0.13 0.10 0.11 0.10 0.17 0.26 0.31 0.27 0.21 0.15 0.16 0.28 0.16 0.17 0.08 0.08 0.12 0.13 0.14 0.16
0.04 0.04 0.04 0.07 0.14 0.21 0.28 0.27 0.19 0.12 0.09 0.09 0.16 0.22 0.12 0.13 0.08 0.09 0.14 0.16 0.17 0.21
0.07 0.07 0.09 0.19 0.31 0.31 0.16 0.08 0.05 0.06 0.06 0.07 0.11 0.17 0.12 0.11 0.08 0.14 0.17 0.18 0.23 0.30
0.13 0.28 0.33 0.27 0.11 0.06 0.06 0.06 0.06 0.09 0.09 0.16 0.10 0.22 0.14 0.10 0.05 0.12 0.13 0.14 0.18 0.28
0.24 0.16 0.09 0.08 0.07 0.08 0.08 0.09 0.11 0.13 0.12 0.13 0.16 0.20 0.18 0.13 0.07 0.12 0.17 0.16 0.15 0.20

GFSNIL_prec_precacc_099.txt.gz
Total_Precipitation_Accumulation
0.20 0.09 0.14 0.06 0.10 0.14 0.13 0.13 0.15 0.27 0.41 0.46 0.50 0.54 0.53 0.53 0.54 0.64 0.70 0.79 0.86 0.88
0.29 0.15 0.08 0.12 0.14 0.17 0.14 0.15 0.20 0.27 0.41 0.61 0.72 0.68 0.68 0.75 0.78 0.85 0.82 0.68 0.59 0.56
0.25 0.35 0.24 0.23 0.41 0.46 0.49 0.44 0.49 0.52 0.60 0.57 0.53 0.49 0.58 0.52 0.44 0.41 0.39 0.39 0.41 0.47
0.24 0.28 0.67 1.04 1.08 0.94 0.97 1.09 0.97 0.80 0.72 0.78 0.82 0.80 0.66 0.47 0.43 0.41 0.35 0.39 0.44 0.41
0.97 1.03 1.14 1.52 1.49 1.26 1.13 0.93 0.83 0.94 0.86 0.68 0.55 0.45 0.39 0.35 0.30 0.30 0.33 0.35 0.47 0.36
1.35 1.36 1.65 1.51 1.33 1.20 1.09 1.02 0.89 0.70 0.54 0.38 0.29 0.25 0.23 0.21 0.21 0.20 0.19 0.19 0.22 0.20
0.82 0.67 0.64 0.47 0.48 0.43 0.45 0.40 0.31 0.28 0.28 0.27 0.23 0.19 0.19 0.17 0.16 0.16 0.15 0.16 0.17 0.14
0.38 0.37 0.27 0.23 0.22 0.27 0.31 0.30 0.30 0.28 0.23 0.20 0.20 0.22 0.20 0.15 0.13 0.12 0.13 0.13 0.13 0.12
0.28 0.26 0.26 0.28 0.22 0.22 0.23 0.19 0.18 0.21 0.23 0.20 0.18 0.30 0.21 0.13 0.11 0.16 0.16 0.15 0.14 0.17
0.19 0.16 0.13 0.10 0.11 0.10 0.17 0.26 0.31 0.27 0.21 0.15 0.16 0.28 0.16 0.17 0.08 0.08 0.13 0.15 0.16 0.17
0.15 0.12 0.08 0.08 0.15 0.22 0.28 0.27 0.19 0.12 0.09 0.09 0.16 0.22 0.12 0.13 0.08 0.10 0.15 0.18 0.19 0.23
0.19 0.18 0.19 0.27 0.39 0.33 0.18 0.10 0.06 0.07 0.06 0.08 0.11 0.18 0.12 0.11 0.09 0.16 0.20 0.21 0.26 0.33
0.22 0.35 0.41 0.38 0.19 0.14 0.11 0.09 0.10 0.12 0.11 0.17 0.11 0.24 0.16 0.12 0.08 0.17 0.19 0.18 0.25 0.46
0.37 0.26 0.18 0.19 0.14 0.14 0.13 0.15 0.19 0.22 0.18 0.16 0.22 0.24 0.25 0.18 0.10 0.17 0.23 0.23 0.25 0.39

GFSNIL_prec_precacc_105.txt.gz
Total_Precipitation_Accumulation
0.20 0.09 0.14 0.06 0.10 0.14 0.13 0.13 0.16 0.31 0.45 0.60 0.85 0.84 0.71 0.61 0.59 0.66 0.71 0.81 0.87 0.88
0.29 0.15 0.08 0.12 0.14 0.17 0.14 0.15 0.20 0.30 0.47 0.75 1.01 1.04 1.04 1.00 0.92 0.94 0.90 0.73 0.61 0.56
0.25 0.35 0.24 0.23 0.41 0.46 0.49 0.45 0.50 0.53 0.63 0.64 0.68 0.68 0.78 0.79 0.67 0.60 0.52 0.50 0.49 0.51
0.24 0.28 0.67 1.04 1.08 0.94 0.97 1.09 0.98 0.81 0.72 0.79 0.88 0.93 0.79 0.55 0.51 0.52 0.45 0.50 0.53 0.45
0.97 1.03 1.14 1.52 1.49 1.26 1.13 0.93 0.83 0.94 0.86 0.69 0.57 0.49 0.45 0.39 0.34 0.32 0.35 0.38 0.49 0.37
1.35 1.36 1.65 1.51 1.33 1.20 1.09 1.02 0.89 0.70 0.54 0.39 0.32 0.28 0.27 0.24 0.24 0.22 0.21 0.21 0.23 0.20
0.82 0.67 0.64 0.47 0.48 0.43 0.45 0.40 0.31 0.28 0.28 0.27 0.23 0.19 0.20 0.18 0.17 0.17 0.17 0.17 0.17 0.14
0.38 0.37 0.27 0.23 0.22 0.27 0.31 0.30 0.30 0.28 0.23 0.20 0.20 0.22 0.21 0.15 0.13 0.12 0.13 0.13 0.13 0.12
0.28 0.26 0.26 0.28 0.22 0.22 0.23 0.19 0.18 0.21 0.23 0.20 0.18 0.31 0.21 0.14 0.12 0.16 0.16 0.15 0.14 0.17
0.23 0.18 0.14 0.10 0.11 0.10 0.17 0.26 0.31 0.27 0.21 0.15 0.16 0.28 0.16 0.17 0.08 0.08 0.13 0.15 0.16 0.17
0.18 0.13 0.09 0.09 0.16 0.22 0.28 0.27 0.19 0.12 0.09 0.09 0.16 0.22 0.12 0.13 0.08 0.10 0.15 0.18 0.19 0.23
0.27 0.22 0.20 0.28 0.40 0.35 0.18 0.10 0.07 0.07 0.06 0.08 0.11 0.19 0.13 0.12 0.09 0.16 0.20 0.21 0.26 0.33
0.27 0.40 0.43 0.40 0.23 0.16 0.13 0.11 0.10 0.13 0.11 0.19 0.11 0.26 0.17 0.13 0.08 0.17 0.19 0.19 0.26 0.49
0.39 0.28 0.21 0.23 0.20 0.19 0.18 0.20 0.25 0.27 0.23 0.20 0.27 0.29 0.31 0.23 0.13 0.18 0.27 0.32 0.33 0.48